Regional Weather Roundup
Issued by NWS

Home | Current Version | Previous Version | Graphics & Text | Print | Product List | Glossary Off
Versions: 1 2 3 4 5 6 7 8 9 10 11 12 13 14 15 16 17 18 19 20 21 22 23 24 25 26 27 28 29 30 31 32 33 34 35 36 37 38 39 40 41 42 43 44 45 46 47 48 49 50

000
ASUS43 KDMX 270104
RWRIA

WEATHER ROUNDUP FOR IOWA
NATIONAL WEATHER SERVICE DES MOINES IA
  ISSUED BY NWS QUAD CITIES IA IL
700 PM CST THU FEB 26 2015

NOTE: "FAIR" INDICATES FEW OR NO CLOUDS BELOW 12,000 FEET WITH NO
SIGNIFICANT WEATHER AND/OR OBSTRUCTIONS TO VISIBILITY.

* - THESE STATIONS ARE NOT NWS STATIONS...THUS NOT UNDER NWS
QUALITY CONTROL.  THEY ALSO DO NOT REPORT WEATHER SUCH
AS PRECIPITATION OR FOG.

IAZ001>003-012>014-020>022-031>034-043>046-270200-
   NORTHWEST IOWA

CITY           SKY/WX    TMP DP  RH WIND       PRES   REMARKS
CARROLL *      MOCLDY     1  -6  71 NW8       30.51R WCI -12
CHEROKEE *     CLEAR      1  -5  76 NW5       30.52R WCI  -9
DENNISON *     CLEAR      0  -8  71 NW6       30.50R WCI -12
LE MARS *      CLEAR      1  -6  71 NW7       30.54R WCI -11
ORANGE CITY *  CLEAR      3  -6  66 N7        30.50R WCI  -9
SHELDON *      PTCLDY    -2  -9  71 NW9       30.49R WCI -18
SIOUX CITY     CLEAR      6  -3  66 N14       30.54R WCI -11
SPENCER        CLEAR     -7 -12  79 N8        30.49R WCI -23
STORM LAKE *   CLEAR      0  -8  71 NW10      30.48S WCI -17
$$

IAZ055>058-069>071-079>083-090>094-270200-
   SOUTHWEST IOWA

CITY           SKY/WX    TMP DP  RH WIND       PRES   REMARKS
ATLANTIC *     CLEAR      1  -6  71 N8        30.52R WCI -12
AUDUBON *      CLEAR      1  -8  66 NW3       30.51R
CLARINDA *     CLEAR      5  -2  72 N10       30.56R WCI -10
COUNCIL BLFS * CLOUDY     7   0  72 N9        30.51R WCI  -7
CRESTON *      CLEAR      1  -6  71 NW10      30.50R WCI -14
HARLAN *       CLEAR      1  -4  78 N7        30.56R WCI -11
LAMONI         CLEAR      4  -5  66 N9        30.49R WCI -10
RED OAK *      CLEAR      3  -2  78 N6        30.54R WCI  -8
SHENANDOAH *   PTCLDY     5  -2  72 N6        30.56R WCI  -6
$$

IAZ047>049-059>061-072>074-084-270200-
   CENTRAL IOWA

CITY           SKY/WX    TMP DP  RH WIND       PRES   REMARKS
AMES           PTCLDY     2  -7  66 NW14      30.51R WCI -16
ANKENY *       PTCLDY     3  -6  66 NW9       30.52R WCI -11
BOONE *        CLOUDY     1  -4  78 NW8       30.48R HAZE    WCI -12
CHARITON *     MOCLDY     5  -6  61 NW10      30.50R WCI -10
DES MOINES     PTCLDY     6  -5  60 N13       30.51R WCI -10
GRINNELL *     CLEAR     -3  -8  77 NW8       30.48R WCI -17
KNOXVILLE *    CLEAR      3  -8  60 N10       30.49R WCI -12
MARSHALLTOWN   PTCLDY    -4 -10  75 NW8       30.48R WCI -19
NEWTON *       CLEAR      1  -8  66 NW9       30.50R WCI -14
PELLA *        CLEAR      2  -4  77 N9        30.52R WCI -13
PERRY *          N/A      3  -2  79 NW9       30.52R WCI -12
$$

IAZ004>006-015-016-023>025-035-036-270200-
   NORTH CENTRAL IOWA

CITY           SKY/WX    TMP DP  RH WIND       PRES   REMARKS
ALGONA *       CLEAR     -2  -8  78 NW8       30.49R WCI -17
CLARION *      FAIR      -6 -11  77 NW8       30.49R WCI -21
ESTHERVILLE    CLEAR     -4  -9  79 NW9       30.48R WCI -20
FORT DODGE *   CLEAR      0  -8  71 N5        30.51R WCI -10
MASON CITY     CLEAR     -6 -12  75 W9        30.47R WCI -23
FOREST CITY *  FAIR       0  -9  65 NW8       30.46R WCI -15
WEBSTER CITY * PTCLDY    -4 -11  71 NW12      30.48R WCI -22
IOWA FALLS *   FAIR      -5 -10  79 NW9       30.48S WCI -21
$$

IAZ007>011-017>019-026>030-037>042-050>054-066-270200-
   NORTHEAST IOWA

CITY           SKY/WX    TMP DP  RH WIND       PRES   REMARKS
CEDAR RAPIDS   CLEAR     -1  -8  72 NW13      30.45R WCI -19
CHARLES CITY * CLEAR     -4 -11  71 NW10      30.45S WCI -21
CLINTON *      CLEAR     -2  -9  71 NW10      30.44R WCI -19
DECORAH *      CLEAR      1  -9  60 VRB5      30.41R WCI  -8
DUBUQUE        CLEAR      3  -6  66 NW12      30.39R WCI -13
MONTICELLO *   PTCLDY     1  -8  66 NW13      30.44R WCI -16
OELWEIN *      CLEAR     -9 -17  70 NW9       30.45R WCI -27
WATERLOO       CLEAR     -1  -8  72 NW6       30.47R WCI -13
$$

IAZ064-065-067-068-078-270200-
   EAST CENTRAL IOWA

CITY           SKY/WX    TMP DP  RH WIND       PRES   REMARKS
DAVENPORT      CLEAR      3  -6  66 NW13      30.43R WCI -14
IOWA CITY      CLEAR      3  -5  69 NW12      30.49R WCI -13
MT. PLEASANT * CLEAR      4  -5  65 NW10      30.48R WCI -11
MUSCATINE *    CLEAR      5  -4  66 NW12      30.49R WCI -11
QUAD CITIES    CLEAR      7  -3  64 NW12      30.44R WCI  -8
$$

IAZ062-063-075>077-085>089-095>099-270200-
   SOUTHEAST IOWA

CITY           SKY/WX    TMP DP  RH WIND       PRES   REMARKS
BURLINGTON     CLEAR      6  -4  63 NW10      30.47R WCI  -9
FAIRFIELD *    CLEAR      1  -9  60 NW10      30.50R WCI -14
FORT MADISON * CLEAR      3  -6  66 NW9       30.48R WCI -11
KEOKUK *       CLEAR      7  -2  66 NW12      30.48R WCI  -9
OSKALOOSA *    FAIR       1  -6  71 NW12      30.50R WCI -15
CENTERVILLE *  FAIR       5  -4  66 NW9       30.50R WCI  -9
OTTUMWA        CLEAR      2  -7  66 NW15      30.49R WCI -17
WASHINGTON *   CLEAR      3  -4  72 NW9       30.49R WCI -11
$$

ABBREVIATIONS USED IN REMARKS
   TC - TEMPERATURES IN CELSIUS
  WCI - WIND CHILL INDEX
   HX - HEAT INDEX
  VSB - VISIBILITY
$$


USA.gov is the U.S. government's official web portal to all federal, state and local government web resources and services.